This is the latest recevied weather packets stored in our database for station/object WX7EM. If no packets are shown the sender has not sent any weather packets the latest 1 day(s).
| Time | Temp. | Humidity | Pressure | Rain* | Wind** | Luminosity | Snow |
|---|---|---|---|---|---|---|---|
| 1778002991 | 14.44° C | 80% | 1015.7 hPa | 0 mm | 0.45 m/s, 153° | 165 W/m² | - |
| 1778002686 | 14.44° C | 80% | 1015.8 hPa | 0 mm | 0 m/s | 158 W/m² | - |
| 1778002383 | 14.44° C | 80% | 1015.5 hPa | 0 mm | 0 m/s | 156 W/m² | - |
| 1778002091 | 13.89° C | 82% | 1015.5 hPa | 0 mm | 0 m/s | 152 W/m² | - |
| 1778001777 | 13.89° C | 82% | 1015.8 hPa | 0 mm | 0.45 m/s, 135° | 160 W/m² | - |
| 1778001472 | 13.89° C | 82% | 1015.7 hPa | 0 mm | 0 m/s | 165 W/m² | - |
| 1778001169 | 13.89° C | 81% | 1015.6 hPa | 0 mm | 0 m/s | 162 W/m² | - |
| 1778000866 | 13.89° C | 82% | 1015.6 hPa | 0 mm | 0.89 m/s, 236° | 163 W/m² | - |
| 1778000564 | 13.89° C | 82% | 1015.5 hPa | 0 mm | 0.45 m/s, 144° | 160 W/m² | - |
| 1778000264 | 13.89° C | 83% | 1015.6 hPa | 0 mm | 0.45 m/s, 203° | 168 W/m² | - |
| 1777999960 | 13.89° C | 82% | 1015.5 hPa | 0 mm | 0.45 m/s, 132° | 157 W/m² | - |
| 1777999656 | 13.89° C | 82% | 1015.5 hPa | 0 mm | 0.45 m/s, 84° | 159 W/m² | - |
| 1777999353 | 13.89° C | 83% | 1015.7 hPa | 0 mm | 0 m/s | 158 W/m² | - |
| 1777999051 | 13.89° C | 83% | 1015.7 hPa | 0 mm | 0 m/s | 154 W/m² | - |
| 1777998750 | 13.89° C | 83% | 1015.7 hPa | 0 mm | 0.89 m/s, 86° | 153 W/m² | - |
| 1777998446 | 13.89° C | 83% | 1015.5 hPa | 0 mm | 0.45 m/s, 131° | 163 W/m² | - |
| 1777998143 | 13.33° C | 84% | 1015.5 hPa | 0 mm | 0.45 m/s, 44° | 178 W/m² | - |
| 1777997840 | 13.89° C | 84% | 1015.7 hPa | 0 mm | 0.45 m/s, 137° | 173 W/m² | - |
| 1777997538 | 13.33° C | 84% | 1015.6 hPa | 0 mm | 0.45 m/s, 159° | 184 W/m² | - |
| 1777997235 | 13.33° C | 85% | 1015.5 hPa | 0 mm | 0.45 m/s, 166° | 169 W/m² | - |
| 1777996933 | 13.33° C | 86% | 1015.4 hPa | 0 mm | 0.45 m/s, 139° | 165 W/m² | - |
| 1777996629 | 12.78° C | 86% | 1015.5 hPa | 0 mm | 0.89 m/s, 187° | 154 W/m² | - |
| 1777996325 | 12.78° C | 86% | 1015.7 hPa | 0 mm | 0.45 m/s, 156° | 126 W/m² | - |
| 1777996021 | 12.78° C | 87% | 1015.5 hPa | 0 mm | 0.89 m/s, 202° | 132 W/m² | - |
| 1777995717 | 12.78° C | 87% | 1015.4 hPa | 0 mm | 0.45 m/s, 163° | 134 W/m² | - |
* Rain latest hour (hover to see other rain measurements)
** Current wind speed in m/s (hover to see current wind gust speed)